Temp
96 96 97 96 94 92 88 87 86 84 85 85 84 86 87 88 90 92 93 91 93 94 90 89 87 88 82 76 71 79 78 78 80 79 81 83 87 80 73 73 71 71 71
94 94 95 94 93 90 87 86 85 84 85 86 85 88 88 87 91 92 90 93 92 94 92 89 87 86 83 70 69 69 78 78 81 76 77 74 80 82 77 75 71 71 69
92 92 92 92 94 89 87 85 85 85 84 86 87 88 89 90 90 91 89 90 92 92 90 92 89 88 86 78 74 77 78 76 79 78 74 71 71 74 80 75 76 77 75
95 93 92 91 92 91 90 87 85 85 85 85 86 85 84 84 88 88 89 90 89 89 92 90 89 88 87 84 84 83 80 78 77 79 77 76 75 69 70 74 74 76 75
96 94 94 92 94 94 91 90 85 84 85 84 84 87 85 87 89 90 90 90 91 93 92 89 89 88 87 85 84 83 82 80 77 75 74 75 73 75 70 68 71 72 73
97 96 95 93 93 95 93 91 85 83 84 84 84 83 85 84 86 88 88 88 89 89 87 91 89 88 88 86 85 84 83 80 79 77 75 74 73 70 70 69 70 67 71
98 96 92 91 91 93 93 92 86 83 84 85 84 84 84 86 85 87 87 88 88 89 88 87 88 89 88 87 86 84 82 81 79 78 76 76 74 74 73 71 68 68 70
99 97 96 94 92 93 92 92 87 84 85 84 84 84 84 86 87 87 87 87 88 89 89 91 91 91 89 87 86 85 82 81 79 77 76 76 75 76 75 71 69 69 67
99 98 99 96 94 93 93 93 88 85 85 86 85 84 85 84 86 86 86 88 87 91 90 92 91 89 88 88 86 85 82 80 79 73 76 77 78 78 76 74 73 67 63
102 99 98 96 97 96 96 95 93 87 86 87 87 87 86 86 86 86 87 88 90 91 90 90 89 88 88 87 86 83 81 79 74 76 77 77 77 78 75 72 70 69 65
102 102 101 100 100 100 99 97 95 90 87 88 88 87 87 87 86 86 86 88 90 89 89 88 87 87 87 87 85 83 81 77 77 78 76 75 75 73 71 70 69 67 67
105 105 103 102 101 101 99 98 95 92 89 88 86 86 87 86 86 86 87 88 87 88 88 88 87 87 87 87 85 81 80 77 77 77 76 73 75 70 68 70 69 68 69
100 104 104 100 99 98 98 95 95 94 92 88 87 87 85 85 85 85 86 87 87 88 89 88 87 87 87 86 82 80 78 78 77 76 75 72 70 69 69 69 68 68 69
94 97 99 96 96 95 95 94 96 97 93 89 87 86 86 86 86 86 87 87 88 87 87 88 88 88 88 87 81 80 78 79 78 76 74 71 69 67 69 67 67 67 66
94 96 96 94 93 93 92 94 95 93 92 87 87 86 87 88 88 87 87 88 87 87 88 88 88 88 88 89 80 79 78 77 75 73 70 68 67 67 67 68 64 64 63
89 90 91 96 93 92 92 93 92 92 92 88 87 87 87 87 86 87 87 87 87 87 87 87 88 88 88 69 72 77 79 75 70 67 67 67 67 66 66 67 66 64 60
85 86 88 93 94 94 94 94 93 93 89 88 88 87 86 86 86 87 87 86 85 86 86 87 88 86 78 67 68 72 78 74 70 68 68 73 73 69 66 65 66 66 66
84 85 87 89 94 98 96 96 96 93 91 89 88 87 86 86 86 86 85 86 86 85 85 86 87 82 77 64 65 71 77 73 72 72 71 69 69 66 69 67 65 65 66
85 86 88 90 91 96 96 93 94 92 91 90 88 88 87 86 86 85 85 85 85 85 85 86 86 79 73 61 63 73 76 75 74 72 72 72 68 65 63 69 68 66 65
79 81 82 84 92 94 95 91 91 90 88 89 89 88 88 87 86 85 85 85 86 85 88 86 83 72 75 60 61 73 78 73 73 71 69 68 65 63 63 70 67 64 66
73 78 79 83 89 94 95 89 89 88 90 91 90 88 88 86 87 86 85 85 85 85 85 84 79 78 74 69 59 59 78 75 73 71 69 66 59 60 62 63 68 64 66
69 72 73 79 80 80 93 90 88 91 91 90 88 87 87 89 89 85 85 85 84 84 83 80 78 78 76 67 58 59 63 71 73 71 70 63 56 58 62 65 60 60 60
65 68 69 78 76 77 78 87 91 91 89 88 87 86 87 87 87 85 84 85 84 85 83 79 76 76 76 74 58 58 60 65 74 72 65 56 53 56 60 60 58 57 65
62 63 65 73 70 71 73 73 76 90 88 86 86 85 85 84 86 87 87 87 86 86 83 78 75 76 76 75 73 71 67 63 66 61 62 62 62 62 65 64 62 66 67
61 62 64 65 65 66 66 67 70 74 87 87 87 86 87 85 85 87 84 89 88 85 85 83 81 76 76 75 69 70 75 72 66 65 65 64 65 66 65 66 67 67 68
61 61 62 63 64 64 62 63 66 68 75 85 87 87 88 88 88 80 76 53 53 52 57 65 77 80 69 56 55 54 55 54 56 67 66 66 68 68 67 68 67 68 68
MSLP
1005.76 1006.71 1007.58 1008.53 1009.48 1010.50 1011.36 1012.04 1012.55 1013.11 1013.70 1014.07 1014.28 1014.03 1013.85 1013.79 1013.45 1013.02 1013.06 1013.36 1013.72 1013.77 1013.98 1013.92 1013.76 1013.64 1014.16 1014.25 1015.49 1015.42 1014.97 1014.60 1014.04 1013.63 1013.00 1012.26 1011.45 1012.10 1012.53 1013.48 1012.75 1012.44 1012.02
1005.36 1006.28 1007.15 1008.06 1009.05 1010.19 1011.15 1011.87 1012.46 1012.91 1013.44 1013.65 1013.86 1013.56 1013.35 1013.30 1013.02 1012.92 1013.04 1013.42 1013.84 1013.86 1014.07 1014.39 1014.00 1014.44 1014.65 1014.56 1014.86 1015.62 1015.33 1014.83 1014.26 1014.15 1013.66 1012.56 1011.84 1012.20 1012.96 1013.21 1013.42 1013.31 1013.39
1004.61 1005.76 1006.77 1007.61 1008.58 1009.71 1010.76 1011.53 1012.15 1012.70 1013.18 1013.34 1013.45 1013.44 1013.33 1013.27 1013.15 1013.06 1013.30 1013.48 1013.77 1013.92 1014.06 1014.17 1014.48 1014.38 1014.65 1015.14 1015.32 1015.35 1015.22 1014.78 1014.21 1013.95 1014.12 1013.85 1013.02 1012.92 1012.30 1012.86 1012.89 1013.07 1013.20
1004.06 1005.06 1006.27 1007.12 1007.89 1009.04 1010.21 1011.07 1011.75 1012.38 1012.93 1013.15 1013.21 1013.29 1013.41 1013.33 1013.19 1013.16 1013.07 1013.13 1013.45 1013.71 1013.77 1014.05 1014.22 1014.54 1014.65 1014.53 1014.53 1014.64 1014.68 1014.46 1014.18 1013.77 1013.80 1014.07 1013.98 1013.70 1012.80 1012.54 1012.93 1013.14 1013.40
1002.96 1004.15 1005.41 1006.62 1007.42 1008.42 1009.44 1010.46 1011.41 1012.11 1012.54 1013.01 1013.21 1013.16 1013.34 1013.20 1013.08 1013.02 1012.90 1013.18 1013.35 1013.29 1013.44 1013.72 1013.79 1014.14 1014.32 1014.37 1014.35 1014.35 1014.21 1014.03 1014.13 1014.26 1014.17 1014.01 1013.72 1013.57 1013.92 1013.54 1013.24 1013.30 1013.38
1001.55 1003.02 1004.51 1005.96 1006.98 1007.75 1008.78 1009.80 1010.86 1011.67 1012.26 1012.66 1012.94 1013.30 1013.29 1013.26 1013.23 1013.08 1012.95 1013.16 1013.19 1013.06 1013.06 1013.21 1013.43 1013.56 1013.85 1013.94 1014.01 1013.83 1013.59 1013.68 1013.87 1014.00 1013.99 1013.92 1014.05 1014.04 1014.24 1014.19 1014.06 1013.88 1013.98
1000.68 1002.07 1003.54 1004.84 1006.09 1006.96 1007.80 1008.83 1010.02 1010.94 1011.64 1012.08 1012.64 1012.97 1013.27 1013.37 1013.30 1013.36 1013.16 1013.18 1013.22 1012.91 1012.74 1013.36 1013.38 1013.42 1013.43 1013.59 1013.68 1013.61 1013.58 1013.72 1013.85 1013.87 1013.80 1013.89 1014.22 1014.40 1014.37 1014.44 1014.33 1014.09 1013.96
999.63 1000.79 1002.28 1003.71 1004.95 1006.00 1006.93 1007.88 1009.03 1010.17 1010.99 1011.72 1012.09 1012.62 1012.92 1013.25 1013.31 1013.26 1013.25 1013.24 1013.30 1013.12 1013.27 1013.26 1013.25 1013.35 1013.22 1013.53 1013.65 1013.60 1013.54 1013.72 1013.93 1013.98 1014.23 1014.40 1014.49 1014.41 1014.27 1014.54 1014.47 1014.03 1014.16
998.44 999.76 1001.09 1002.68 1004.08 1005.26 1006.02 1006.96 1008.06 1009.27 1010.14 1010.88 1011.53 1011.99 1012.49 1012.88 1012.94 1013.10 1013.09 1013.24 1013.37 1013.30 1013.22 1013.21 1013.37 1013.44 1013.52 1013.60 1013.62 1013.56 1013.69 1013.92 1014.08 1014.64 1014.60 1014.44 1014.40 1014.26 1014.18 1014.35 1014.37 1014.52 1014.95
997.69 998.81 1000.02 1001.48 1002.92 1004.44 1005.45 1006.40 1007.20 1008.32 1009.20 1010.03 1010.84 1011.36 1011.84 1012.32 1012.69 1012.91 1012.83 1012.99 1013.06 1013.15 1013.24 1013.36 1013.46 1013.45 1013.54 1013.57 1013.53 1013.51 1013.83 1014.15 1014.65 1014.81 1014.76 1014.70 1014.75 1014.62 1014.82 1014.83 1014.97 1015.16 1015.36
996.77 997.48 998.82 1000.28 1001.70 1003.14 1004.42 1005.40 1006.37 1007.40 1008.43 1009.20 1009.94 1010.70 1011.13 1011.62 1012.10 1012.42 1012.66 1012.88 1013.07 1013.21 1013.29 1013.40 1013.47 1013.47 1013.46 1013.46 1013.44 1013.71 1013.98 1014.46 1014.72 1014.90 1015.07 1015.26 1015.23 1015.36 1015.41 1015.44 1015.65 1015.78 1015.73
995.35 996.22 997.55 999.16 1000.73 1001.88 1003.03 1004.16 1005.25 1006.21 1007.32 1008.21 1009.03 1009.84 1010.43 1010.96 1011.35 1011.76 1012.17 1012.53 1012.81 1013.02 1013.04 1013.17 1013.30 1013.30 1013.38 1013.33 1013.30 1013.80 1014.35 1014.57 1014.75 1015.13 1015.35 1015.74 1015.82 1016.00 1016.17 1016.04 1016.22 1016.14 1015.95
995.77 995.70 996.44 998.04 999.49 1000.75 1001.99 1003.13 1004.34 1005.32 1006.47 1007.53 1008.39 1009.12 1009.85 1010.38 1010.75 1011.09 1011.59 1012.08 1012.39 1012.62 1012.68 1012.78 1013.00 1013.07 1013.20 1013.19 1013.46 1014.23 1014.62 1014.75 1015.18 1015.37 1015.76 1016.15 1016.45 1016.75 1016.70 1016.73 1016.74 1016.66 1016.39
996.69 996.64 996.82 997.45 998.66 999.94 1001.11 1002.37 1003.50 1004.61 1005.78 1006.94 1007.86 1008.50 1009.15 1009.81 1010.24 1010.62 1011.07 1011.63 1012.00 1012.21 1012.35 1012.54 1012.70 1012.86 1012.98 1013.04 1013.71 1014.30 1014.71 1015.07 1015.47 1015.85 1016.26 1016.72 1017.09 1017.29 1017.25 1017.44 1017.31 1017.28 1016.92
997.78 997.40 997.72 997.47 998.52 999.69 1000.75 1001.93 1002.96 1004.03 1005.09 1006.24 1007.21 1007.92 1008.47 1009.19 1009.75 1010.18 1010.66 1011.16 1011.56 1011.83 1012.05 1012.20 1012.38 1012.58 1012.60 1012.75 1013.77 1014.39 1014.87 1015.46 1015.89 1016.52 1017.05 1017.60 1017.87 1017.75 1017.79 1018.08 1018.17 1018.11 1018.01
999.39 998.90 998.97 998.06 998.72 999.54 1000.48 1001.55 1002.61 1003.54 1004.56 1005.64 1006.51 1007.49 1008.26 1008.74 1009.32 1009.80 1010.28 1010.77 1011.13 1011.44 1011.73 1011.93 1012.09 1012.20 1012.80 1013.30 1013.96 1014.48 1015.00 1015.74 1016.44 1017.15 1017.70 1018.05 1018.28 1018.39 1018.51 1018.70 1018.79 1018.95 1018.96
1000.36 1000.44 1000.23 999.73 999.33 999.88 1000.46 1001.22 1002.25 1003.22 1004.17 1005.19 1006.22 1007.01 1007.78 1008.39 1008.87 1009.39 1009.88 1010.37 1010.81 1011.16 1011.41 1011.62 1011.87 1012.27 1013.29 1013.68 1014.20 1014.70 1015.27 1016.03 1016.73 1017.24 1017.53 1017.82 1018.54 1018.65 1018.90 1019.15 1019.13 1019.25 1019.15
1001.68 1001.88 1001.52 1001.24 1000.64 1000.38 1000.78 1001.37 1002.09 1002.96 1003.87 1004.88 1005.78 1006.62 1007.34 1008.02 1008.50 1008.98 1009.53 1010.07 1010.52 1010.86 1011.17 1011.46 1011.71 1012.63 1013.62 1014.03 1014.38 1014.82 1015.52 1016.34 1016.75 1017.12 1017.40 1017.98 1018.40 1018.58 1018.77 1019.07 1019.24 1019.34 1019.26
1002.88 1002.69 1002.45 1002.13 1001.48 1000.82 1001.01 1001.64 1002.17 1002.91 1003.68 1004.39 1005.27 1006.06 1006.88 1007.65 1008.23 1008.70 1009.10 1009.64 1010.20 1010.68 1010.91 1011.21 1011.68 1012.70 1013.88 1014.22 1014.45 1014.93 1015.57 1016.14 1016.56 1017.01 1017.44 1017.94 1018.42 1018.72 1018.76 1018.85 1019.00 1019.26 1019.25
1004.68 1004.05 1004.01 1003.40 1002.00 1001.27 1001.14 1001.78 1002.27 1002.88 1003.57 1004.28 1004.98 1005.78 1006.46 1007.14 1007.73 1008.36 1008.91 1009.33 1009.85 1010.33 1010.68 1011.04 1011.74 1012.66 1013.59 1014.22 1014.63 1015.03 1015.52 1016.25 1016.82 1017.32 1017.68 1018.05 1018.47 1018.91 1018.87 1018.80 1019.14 1019.34 1019.09
1005.94 1004.67 1004.87 1003.88 1002.58 1001.53 1001.36 1001.82 1002.32 1002.81 1003.55 1004.25 1004.90 1005.57 1006.12 1006.70 1007.30 1007.98 1008.64 1009.22 1009.71 1010.08 1010.59 1011.05 1011.96 1012.67 1013.39 1014.05 1014.57 1015.12 1015.36 1016.14 1016.84 1017.47 1018.09 1018.59 1018.75 1018.89 1019.06 1018.91 1019.09 1019.24 1019.28
1006.17 1006.11 1005.83 1005.03 1004.40 1003.40 1001.84 1002.17 1002.50 1002.91 1003.43 1004.09 1004.67 1005.32 1005.86 1006.30 1006.88 1007.58 1008.35 1008.92 1009.54 1009.93 1010.55 1011.27 1012.07 1012.88 1013.59 1013.97 1014.63 1015.04 1015.24 1015.72 1016.30 1017.24 1017.89 1018.72 1019.11 1019.02 1018.99 1019.13 1019.17 1019.36 1019.49
1008.65 1007.72 1007.36 1006.90 1006.15 1004.74 1003.81 1003.14 1003.10 1003.26 1003.52 1004.01 1004.47 1005.01 1005.61 1006.13 1006.44 1007.30 1008.12 1008.72 1009.21 1009.57 1010.20 1011.10 1011.94 1012.70 1013.55 1014.14 1014.62 1015.14 1015.18 1015.45 1016.01 1016.56 1017.61 1018.50 1019.14 1019.32 1019.26 1019.22 1019.36 1019.42 1019.44
1010.30 1009.95 1009.43 1008.00 1007.34 1006.37 1005.33 1005.38 1004.86 1003.71 1003.80 1004.05 1004.38 1004.90 1005.44 1006.00 1006.32 1007.11 1007.93 1008.34 1008.63 1008.93 1009.59 1010.77 1011.66 1012.36 1013.18 1013.97 1014.69 1015.20 1015.55 1015.58 1016.14 1016.69 1017.59 1018.35 1018.99 1019.14 1019.07 1019.08 1019.20 1019.32 1019.03
1011.03 1010.70 1010.34 1009.92 1008.76 1007.80 1006.57 1006.14 1006.25 1005.38 1003.98 1004.12 1004.35 1004.80 1005.34 1005.87 1006.36 1006.94 1007.82 1008.02 1007.86 1008.22 1008.81 1009.66 1010.74 1011.80 1012.43 1012.97 1013.60 1014.37 1015.10 1015.74 1016.48 1017.22 1017.85 1018.62 1019.02 1019.09 1019.09 1019.24 1019.12 1019.09 1019.16
1011.64 1011.54 1011.09 1010.22 1009.15 1007.95 1007.13 1006.89 1007.24 1006.30 1005.42 1004.26 1004.30 1004.48 1004.80 1005.46 1005.90 1007.12 1008.23 1008.51 1008.38 1008.30 1008.01 1008.56 1009.66 1011.00 1011.96 1012.80 1013.98 1014.79 1015.38 1016.20 1016.77 1017.52 1017.93 1018.15 1018.47 1018.76 1018.86 1018.84 1019.06 1019.02 1019.26
Wind_Speed
17 19 17 15 15 14 12 9 9 10 7 6 6 5 5 6 5 4 3 5 1 1 3 4 2 3 5 9 11 10 5 5 4 4 7 9 9 7 6 6 4 6 4
19 18 16 16 15 14 13 11 10 10 8 5 6 5 5 3 4 4 5 3 4 1 2 2 6 7 3 5 8 9 3 4 4 4 6 5 7 4 5 5 3 4 2
20 18 17 16 15 15 14 13 11 11 9 8 6 4 3 2 1 1 6 6 4 3 5 1 2 4 4 7 8 11 7 4 4 7 1 4 4 8 1 4 3 4 4
19 18 18 17 17 16 15 14 13 11 11 10 6 6 4 4 3 4 4 4 7 7 5 3 4 4 3 5 5 2 3 4 5 5 5 6 5 3 5 1 4 4 5
20 21 20 18 17 17 16 14 13 11 10 10 9 6 5 4 3 3 2 2 3 2 5 6 5 4 3 5 5 5 4 2 4 5 4 4 4 2 1 4 6 5 4
22 21 20 19 16 16 16 16 16 12 12 12 11 9 5 7 4 3 2 3 4 6 8 5 4 4 4 5 5 4 5 4 5 5 6 4 2 3 2 3 5 4 3
20 19 21 20 19 19 18 17 18 16 14 12 12 10 7 5 6 4 4 2 3 4 3 5 5 2 4 4 5 5 6 5 3 5 4 4 4 3 2 2 3 2 2
20 21 22 20 21 20 19 18 19 17 16 15 12 10 9 6 5 5 4 3 3 4 6 2 2 2 4 5 5 4 4 5 4 6 5 3 3 2 1 1 2 5 2
23 23 22 20 20 19 19 19 19 18 17 15 12 12 10 11 8 8 7 5 4 5 4 2 2 4 4 4 5 4 6 5 4 6 3 2 1 2 2 1 2 3 4
21 22 21 21 19 19 17 18 17 19 18 16 14 11 12 11 10 8 6 5 2 2 3 3 4 5 4 5 5 5 6 6 4 2 4 6 5 6 7 6 6 6 4
21 22 22 20 20 20 19 19 18 20 18 16 15 13 12 12 10 9 8 5 3 3 3 3 4 5 4 4 4 4 6 7 5 6 5 5 6 6 5 5 5 4 4
19 19 23 23 21 19 19 19 18 17 19 17 14 14 12 12 11 10 9 7 6 5 5 5 4 4 4 4 5 7 6 5 5 7 5 10 7 7 7 4 4 4 3
9 6 20 21 22 20 18 17 17 17 17 16 15 12 12 11 11 10 9 7 6 6 6 5 5 4 3 6 8 8 6 4 9 5 9 8 7 6 4 5 4 5 4
9 10 3 19 19 18 17 16 17 17 15 16 15 14 13 12 11 9 9 8 6 7 6 5 4 3 4 2 10 8 6 7 7 9 8 9 8 7 5 7 7 7 7
10 8 12 13 15 14 14 14 15 14 14 15 15 15 13 12 11 10 9 8 8 8 6 6 5 5 6 4 11 8 9 8 9 10 10 9 12 16 16 6 7 7 7
14 15 19 10 12 13 13 13 12 13 14 15 15 13 12 11 11 9 9 9 9 7 7 6 5 6 6 16 14 11 9 11 9 9 8 8 11 12 13 15 16 10 6
13 14 14 12 7 9 9 11 11 11 11 13 13 13 12 12 11 10 9 9 9 7 6 6 5 6 10 13 11 12 10 10 8 7 7 8 8 8 6 9 11 10 10
12 11 12 14 9 7 6 6 10 7 11 12 13 12 12 12 10 10 9 8 8 8 7 6 5 10 7 10 11 13 10 10 8 6 7 8 6 5 5 6 6 5 4
10 9 11 11 11 7 6 8 7 10 10 11 13 13 13 12 10 11 10 9 8 7 7 6 6 10 9 8 11 11 10 9 7 7 7 6 7 7 9 6 3 5 3
12 11 13 17 13 8 8 9 9 9 10 11 11 11 11 12 11 11 10 9 8 7 7 7 11 12 11 10 10 11 8 8 7 6 7 11 8 7 6 3 6 3 2
12 14 13 16 9 8 6 10 10 9 10 9 9 10 10 10 10 10 9 9 9 8 8 7 9 10 11 10 10 2 10 7 7 6 6 4 8 8 6 8 5 4 2
17 13 13 12 14 15 3 6 8 7 9 9 9 10 10 10 9 11 10 10 9 8 7 10 8 6 9 10 7 6 4 13 8 8 7 6 7 6 5 4 3 6 5
13 13 14 10 10 12 14 6 2 4 8 8 9 10 11 10 10 12 11 10 9 9 9 8 7 7 7 6 9 3 6 10 8 8 12 14 8 5 4 6 2 2 3
9 9 11 9 9 11 13 13 15 3 6 8 9 9 10 10 11 10 9 9 9 9 9 8 7 7 7 8 5 4 7 11 10 16 12 10 7 4 5 3 3 3 1
8 8 9 8 8 10 14 14 15 15 6 7 9 10 9 10 11 7 5 8 10 8 11 10 10 9 10 11 12 11 8 8 10 11 8 6 4 4 3 3 4 3 1
8 9 10 11 11 12 15 16 16 15 14 8 8 9 9 10 10 8 6 12 10 8 3 16 13 10 9 18 14 12 12 18 16 7 7 7 6 6 5 4 4 3 4
Wind_Direction
178 168 180 176 157 159 160 172 174 149 158 160 216 210 197 210 232 221 160 118 320 57 79 302 275 271 72 25 345 325 334 318 308 324 331 316 321 111 158 108 349 39 321
178 172 180 174 165 163 166 172 176 157 172 197 218 218 223 195 204 200 123 147 251 285 269 303 335 37 47 112 252 272 291 260 314 333 318 329 323 52 130 153 137 197 187
184 176 178 178 170 169 171 175 177 172 180 209 202 241 337 293 204 223 155 172 194 258 286 176 231 306 299 169 211 233 247 299 310 327 205 329 324 331 115 48 67 36 28
187 176 175 184 182 171 174 177 179 182 184 219 211 213 196 237 240 175 216 200 179 206 229 242 228 222 270 290 294 356 314 325 309 334 351 336 256 309 323 60 73 32 50
183 178 181 184 190 179 176 177 178 187 188 206 234 196 229 244 263 229 216 172 128 218 225 222 231 257 254 282 323 332 314 308 332 322 313 306 309 260 241 321 354 30 29
177 179 178 177 192 185 177 178 176 185 194 190 221 238 218 240 286 304 282 178 209 213 225 225 234 249 278 290 321 317 296 316 338 329 338 4 339 26 343 336 331 342 16
175 175 176 177 184 194 184 180 174 184 189 200 204 223 238 255 250 273 275 262 306 303 185 189 220 251 285 301 303 320 308 319 333 343 345 50 37 24 341 10 314 260 111
170 175 176 179 182 193 186 184 176 183 189 196 198 209 219 235 244 263 245 270 250 287 33 150 47 347 326 307 305 291 314 14 13 44 53 62 35 317 10 147 293 338 100
172 175 177 177 181 192 189 189 176 183 188 193 197 198 204 212 227 240 218 240 265 282 277 305 338 266 262 310 309 302 351 45 44 59 52 84 209 296 278 335 12 39 4
182 173 176 176 179 187 195 189 182 184 187 190 198 202 203 207 218 244 265 233 294 344 12 339 320 312 314 302 309 318 24 64 74 86 61 29 2 17 45 26 27 31 7
186 175 172 175 177 183 193 191 194 180 187 190 193 202 203 207 211 220 230 250 228 242 252 262 269 282 293 309 305 358 57 98 111 86 73 63 40 31 47 37 37 36 18
190 178 173 172 179 188 189 190 192 188 186 189 191 196 201 202 207 209 216 208 212 211 227 232 250 271 292 289 289 63 94 113 114 91 70 52 41 46 23 56 69 26 24
353 208 174 170 178 184 186 186 186 192 182 185 190 194 198 199 204 203 200 206 201 208 229 220 218 237 268 278 81 96 113 127 94 105 76 75 66 53 52 40 28 3 316
13 320 247 167 173 177 179 180 183 185 182 181 189 195 196 200 204 203 196 194 196 213 219 222 236 240 252 257 108 117 98 88 91 80 74 61 52 35 22 43 21 18 23
18 348 322 160 164 170 169 175 178 180 178 178 189 195 198 195 204 200 199 189 192 209 220 221 207 210 236 170 124 120 121 110 94 85 84 75 80 68 58 56 33 38 31
25 12 346 147 158 163 165 169 176 175 171 178 187 186 194 195 199 199 189 186 193 201 194 214 218 213 92 112 128 128 127 100 103 102 112 109 84 77 87 79 66 54 60
36 8 351 350 117 147 163 165 170 167 169 176 179 182 185 195 193 190 189 177 184 183 202 194 207 112 124 136 138 129 117 115 120 139 161 118 120 126 114 99 94 82 95
41 8 351 337 338 158 164 167 165 173 171 171 179 180 184 193 188 184 182 174 182 186 186 197 188 122 135 148 133 126 121 125 151 165 112 125 127 52 134 153 110 103 62
35 17 345 323 303 269 174 180 188 177 180 181 179 181 182 187 186 185 176 174 176 189 184 183 152 124 144 164 147 130 135 141 135 121 132 126 103 59 22 99 113 130 181
7 7 340 308 289 280 180 176 196 181 191 193 183 184 184 186 187 180 176 175 177 186 181 193 135 139 151 180 150 151 133 136 128 107 103 112 114 74 36 119 96 82 299
355 5 337 307 325 292 210 181 187 202 186 188 182 182 182 183 181 169 169 173 181 176 201 151 129 146 159 170 178 82 141 146 147 143 133 115 116 103 59 54 118 183 311
349 2 339 338 350 358 310 171 187 187 171 178 180 181 179 181 177 169 169 174 182 179 183 131 135 149 161 170 149 177 194 155 149 160 132 128 133 121 95 95 83 11 341
352 344 342 323 345 4 24 7 161 180 164 180 182 176 174 184 168 168 171 175 183 173 154 151 146 157 166 161 149 210 203 152 155 131 135 134 145 142 109 123 163 316 280
10 341 325 337 356 5 24 12 346 219 181 187 179 166 170 183 160 167 173 183 182 187 157 155 156 164 169 163 164 148 117 95 96 117 126 145 157 237 161 164 209 252 69
18 354 359 346 7 9 27 15 346 343 208 191 177 172 175 189 163 162 185 203 185 212 165 172 169 173 182 183 174 164 157 132 131 126 128 143 166 182 183 242 117 124 184
32 22 11 351 21 31 30 17 348 341 325 190 186 183 187 188 173 145 121 50 50 15 120 166 162 165 183 147 155 157 130 126 140 133 155 162 179 182 200 175 177 148 119